Simultaneous Nadir Overpasses (SNOs) Predictions

Prediction of SNOs between GOES-15 and NPP Satellite Orbit:

Table of predicted SNOs for the next 14.0 days since TLE Epoch: 12/2/2023
Index Date Time (GOES-15) GOES-15 Lat,Lon NPP Lat,Lon Distance(km) Time Diff (sec)
1 12/03/2023 09:21:39 -0.01, 61.29 -0.16, 60.66 72.63 80
2 12/04/2023 09:05:34 -0.02, 61.27 0.85, 65.19 446.95 80
3 12/05/2023 21:27:21 -0.00, 61.19 0.27, 59.91 144.85 80
4 12/06/2023 21:05:55 0.01, 61.17 -0.74, 64.45 373.84 80
5 12/08/2023 09:27:51 0.01, 61.20 -0.44, 59.15 233.74 80
6 12/09/2023 09:11:45 -0.00, 61.18 0.58, 63.68 285.53 80
7 12/10/2023 21:33:32 -0.02, 61.09 0.59, 58.41 305.51 80
8 12/11/2023 21:12:06 -0.00, 61.09 -0.44, 62.94 212.47 80
9 12/13/2023 09:34:00 0.02, 61.14 -0.78, 57.65 397.95 80
10 12/14/2023 09:17:55 0.01, 61.13 0.25, 62.18 120.28 80
11 12/15/2023 21:39:41 -0.03, 61.04 0.90, 56.92 470.69 80
